Flag for Poland Weather past 2 weeks in Dąbrowa Górnicza, Poland

Now
28 °F

Light snow. Ice fog.


Feels Like: 22 °F
Forecast: 24 / 30 °F
Wind: 6 mph from West

Location: Katowice Airport

Current Time: Jan 25, 2015 at 9:59:01 PM

Latest Report: Jan 25, 2015 at 9:30 PM


Visibility: 2 mi

Pressure: 30.18 "Hg

Humidity: 100%

Dew point: 28 °F

Location of Dąbrowa GórniczaLocation

Historic Weather in Dąbrowa Górnicza — Graph

°F

Dąbrowa Górnicza temperature yesterday

Maximum temperature yesterday: 30 °F (at 12:00 AM)
Minimum temperature yesterday: 28 °F (at 9:00 PM)
Average temperature yesterday: 30 °F

Past Weeks' High & Low Weather Summary

 TemperatureHumidityPressure
High54 °F (Jan 10, 9:00 PM)100% (Jan 12, 10:00 AM)30.18 "Hg (Jan 12, 10:00 AM)
Low27 °F (Jan 25, 3:00 AM)32% (Jan 13, 6:00 PM)29.47 "Hg (Jan 10, 9:00 PM)
Average36 °F85%29.95 "Hg
* Reported Jan 10 9:00 PM — Jan 25 9:00 PM, Dąbrowa Górnicza, Weather by CustomWeather, © 2014

Note: Actual official high and low records may vary slightly from our data, if they occured in-between our weather recording intervals... More about our weather records

Advertising

Dąbrowa Górnicza weather history for previous 24 hours

 ConditionsComfort  
Time TempWeatherWind HumidityBarometerVisibility
9:00 PM
Jan 25
28 °FLight snow. Ice fog.6 mph100%30.18 "Hg2 mi
8:30 PM28 °FLight snow. Ice fog.6 mph100%30.18 "Hg1 mi
8:00 PM28 °FLight snow. Ice fog.6 mph100%30.18 "Hg1 mi
7:30 PM28 °FLight snow. Ice fog.6 mph100%30.18 "Hg2 mi
7:00 PM28 °FLight snow. Ice fog.7 mph100%30.18 "Hg2 mi
6:30 PM28 °FLight snow. Ice fog.8 mph100%30.15 "Hg3 mi
6:00 PM28 °FLight snow. Ice fog.7 mph100%30.15 "Hg3 mi
5:30 PM28 °FLight snow. Ice fog.7 mph100%30.15 "Hg2 mi
5:00 PM28 °FLight snow. Ice fog.7 mph93%30.15 "Hg1 mi
4:30 PM28 °FLight snow. Ice fog.7 mph93%30.12 "Hg2 mi
4:00 PM28 °FLight snow. Ice fog.8 mph93%30.12 "Hg2 mi
3:30 PM28 °FLight snow. Ice fog.7 mph100%30.12 "Hg1 mi
3:00 PM28 °FLight snow. Ice fog.7 mph93%30.12 "Hg1 mi
2:30 PM28 °FLight snow. Ice fog.7 mph93%30.12 "Hg1 mi
2:00 PM28 °FLight snow. Ice fog.9 mph93%30.09 "Hg1 mi
1:30 PM28 °FLight snow. Ice fog.9 mph93%30.09 "Hg1 mi
1:00 PM28 °FLight snow. Ice fog.12 mph93%30.09 "Hg2 mi
12:30 PM28 °FLight snow. Ice fog.8 mph93%30.09 "Hg1 mi
12:00 PM28 °FLight snow. Ice fog.9 mph93%30.09 "Hg1 mi
11:30 AM28 °FLight snow. Ice fog.9 mph93%30.09 "Hg1 mi
11:00 AM27 °FLight snow. Ice fog.8 mph100%30.09 "Hg1 mi
10:30 AM27 °FLight snow. Ice fog.9 mph100%30.09 "Hg1 mi
10:00 AM27 °FLight snow. Ice fog.9 mph100%30.09 "Hg1 mi
9:30 AM27 °FLight snow. Ice fog.9 mph93%30.09 "Hg1 mi
9:00 AM27 °FLight snow. Ice fog.9 mph93%30.07 "Hg1 mi
8:30 AM27 °FLight snow. Ice fog.9 mph93%30.07 "Hg1 mi
8:00 AM27 °FLight snow. Ice fog.9 mph93%30.07 "Hg1 mi
7:30 AM27 °FLight snow. Ice fog.9 mph93%30.07 "Hg1 mi
7:00 AM27 °FLight snow. Ice fog.9 mph93%30.04 "Hg1 mi
6:30 AM27 °FLight snow. Ice fog.8 mph100%30.04 "Hg1 mi
6:00 AM27 °FLight snow. Ice fog.8 mph100%30.04 "Hg1 mi
5:30 AM27 °FLight snow. Ice fog.7 mph100%30.04 "Hg1 mi
5:00 AM27 °FLight snow. Ice fog.8 mph100%30.01 "Hg1 mi
4:30 AM27 °FLight snow. Ice fog.9 mph100%30.01 "Hg1 mi
4:00 AM27 °FSnow. Ice fog.9 mph100%30.01 "Hg1 mi
3:30 AM27 °FLight snow. Ice fog.10 mph100%30.01 "Hg1 mi
3:00 AM27 °FLight snow. Ice fog.10 mph100%30.01 "Hg2 mi
2:30 AM28 °FLight snow. Ice fog.10 mph93%30.01 "Hg2 mi
2:00 AM28 °FLight snow. Ice fog.9 mph100%30.01 "Hg1 mi
1:30 AM28 °FLight snow. Ice fog.12 mph100%30.01 "Hg1 mi
1:00 AM28 °FLight snow. Ice fog.8 mph100%30.01 "Hg1 mi
12:30 AM28 °FLight mixture of precip. Ice fog.9 mph100%30.01 "Hg1 mi
12:00 AM28 °FSnow flurries. Ice fog.8 mph100%29.98 "Hg2 mi
11:30 PM
Jan 24
28 °FSnow flurries. Ice fog.8 mph100%29.98 "Hg2 mi
11:00 PM28 °FLight snow. Ice fog.9 mph100%29.98 "Hg2 mi
10:30 PM28 °FLight snow. Ice fog.8 mph100%29.98 "Hg2 mi
10:00 PM28 °FLight snow. Ice fog.8 mph100%29.98 "Hg2 mi
9:30 PM28 °FLight snow. Ice fog.7 mph100%29.98 "Hg2 mi
9:00 PM28 °FLight snow. Ice fog.6 mph100%29.98 "Hg1 mi
Weather by CustomWeather, © 2014

See weather overviewHow to use our weather pages